Hourly Weather Ludwinowo

Today, 13 June, Sunday

Time Temperature Precipitation Wind Pressure Humidity
00:00 +11°C° 0 mm 4 mps 740 mmHg 93%
01:00 +9°C° 0 mm 5 mps 740 mmHg 92%
02:00 +9°C° 0 mm 5 mps 739 mmHg 91%
03:00 +9°C° 0 mm 5 mps 739 mmHg 92%
04:00 +9°C° 0 mm 5 mps 739 mmHg 92%
05:00 +9°C° 0 mm 5 mps 739 mmHg 93%
06:00 +10°C° 0.1 mm 5 mps 740 mmHg 90%
07:00 +11°C° 0.1 mm 6 mps 740 mmHg 86%
08:00 +14°C° 0.1 mm 6 mps 740 mmHg 83%
09:00 +14°C° 0.6 mm 6 mps 741 mmHg 82%
10:00 +15°C° 0.6 mm 7 mps 741 mmHg 81%
11:00 +16°C° 0.6 mm 7 mps 741 mmHg 79%
12:00 +16°C° 1.2 mm 7 mps 742 mmHg 81%
13:00 +16°C° 1.2 mm 7 mps 742 mmHg 82%
14:00 +16°C° 1.2 mm 7 mps 743 mmHg 83%
15:00 +16°C° 0.5 mm 7 mps 744 mmHg 80%
16:00 +16°C° 0.5 mm 7 mps 744 mmHg 76%
17:00 +16°C° 0.5 mm 7 mps 745 mmHg 73%
18:00 +15°C° 0 mm 7 mps 745 mmHg 72%
19:00 +15°C° 0 mm 7 mps 746 mmHg 72%
20:00 +14°C° 0 mm 7 mps 746 mmHg 71%
21:00 +11°C° 0 mm 6 mps 747 mmHg 74%
22:00 +10°C° 0 mm 6 mps 748 mmHg 77%
23:00 +9°C° 0 mm 5 mps 748 mmHg 80%

Tomorrow, 14 June, Monday

Time Temperature Precipitation Wind Pressure Humidity
00:00 +8°C° 0 mm 5 mps 748 mmHg 81%
01:00 +7°C° 0 mm 5 mps 749 mmHg 81%
02:00 +7°C° 0 mm 4 mps 749 mmHg 82%
03:00 +6°C° 0 mm 4 mps 749 mmHg 82%
04:00 +6°C° 0 mm 4 mps 749 mmHg 82%
05:00 +7°C° 0 mm 3 mps 750 mmHg 82%
06:00 +8°C° 0 mm 4 mps 750 mmHg 75%
07:00 +10°C° 0 mm 4 mps 750 mmHg 68%
08:00 +12°C° 0 mm 4 mps 750 mmHg 61%
09:00 +14°C° 0 mm 4 mps 750 mmHg 57%
10:00 +15°C° 0 mm 4 mps 750 mmHg 53%
11:00 +18°C° 0 mm 4 mps 750 mmHg 49%
12:00 +18°C° 0 mm 4 mps 750 mmHg 49%
13:00 +19°C° 0 mm 3 mps 750 mmHg 48%
14:00 +20°C° 0 mm 3 mps 750 mmHg 48%
15:00 +20°C° 0 mm 3 mps 750 mmHg 49%
16:00 +20°C° 0 mm 3 mps 750 mmHg 50%
17:00 +20°C° 0 mm 2 mps 750 mmHg 51%
18:00 +19°C° 0 mm 2 mps 750 mmHg 58%
19:00 +19°C° 0 mm 1 mps 749 mmHg 65%
20:00 +16°C° 0 mm 0 mps 749 mmHg 72%
21:00 +15°C° 0 mm 1 mps 749 mmHg 76%
22:00 +14°C° 0 mm 1 mps 749 mmHg 79%
23:00 +13°C° 0 mm 2 mps 749 mmHg 83%

Day after tomorrow, 15 June, Tuesday

Time Temperature Precipitation Wind Pressure Humidity
00:00 +12°C° 0 mm 2 mps 749 mmHg 84%
01:00 +12°C° 0 mm 2 mps 749 mmHg 84%
02:00 +10°C° 0 mm 3 mps 749 mmHg 85%
03:00 +11°C° 0 mm 3 mps 749 mmHg 86%
04:00 +11°C° 0 mm 3 mps 749 mmHg 86%
05:00 +11°C° 0 mm 3 mps 748 mmHg 87%
06:00 +13°C° 0 mm 3 mps 748 mmHg 83%
07:00 +16°C° 0 mm 3 mps 748 mmHg 78%
08:00 +17°C° 0 mm 3 mps 748 mmHg 74%
09:00 +19°C° 0 mm 4 mps 748 mmHg 71%
10:00 +20°C° 0 mm 4 mps 748 mmHg 68%
11:00 +21°C° 0 mm 4 mps 748 mmHg 66%
12:00 +20°C° 0.4 mm 4 mps 748 mmHg 73%
13:00 +19°C° 0.4 mm 4 mps 748 mmHg 81%
14:00 +18°C° 0.4 mm 4 mps 748 mmHg 88%
15:00 +18°C° 0.3 mm 4 mps 748 mmHg 90%
16:00 +17°C° 0.3 mm 3 mps 748 mmHg 92%
17:00 +17°C° 0.3 mm 3 mps 748 mmHg 94%
18:00 +16°C° 0 mm 3 mps 748 mmHg 93%
19:00 +16°C° 0 mm 3 mps 748 mmHg 92%
20:00 +14°C° 0 mm 3 mps 748 mmHg 92%
21:00 +13°C° 0 mm 3 mps 748 mmHg 92%
22:00 +12°C° 0 mm 2 mps 748 mmHg 92%
23:00 +10°C° 0 mm 2 mps 749 mmHg 93%

16 June, Wednesday

Time Temperature Precipitation Wind Pressure Humidity
00:00 +9°C° 0 mm 2 mps 749 mmHg 93%
01:00 +8°C° 0 mm 2 mps 749 mmHg 93%
02:00 +7°C° 0 mm 2 mps 749 mmHg 94%
03:00 +7°C° 0 mm 2 mps 750 mmHg 93%
04:00 +7°C° 0 mm 2 mps 750 mmHg 93%
05:00 +9°C° 0 mm 1 mps 750 mmHg 93%
06:00 +10°C° 0 mm 2 mps 750 mmHg 86%
07:00 +13°C° 0 mm 2 mps 750 mmHg 80%
08:00 +15°C° 0 mm 2 mps 751 mmHg 73%
09:00 +16°C° 0 mm 2 mps 751 mmHg 66%
10:00 +18°C° 0 mm 2 mps 751 mmHg 60%
11:00 +19°C° 0 mm 2 mps 751 mmHg 53%
12:00 +20°C° 0 mm 2 mps 751 mmHg 52%
13:00 +20°C° 0 mm 2 mps 751 mmHg 51%
14:00 +21°C° 0 mm 2 mps 751 mmHg 50%
15:00 +21°C° 0 mm 3 mps 751 mmHg 52%
16:00 +21°C° 0 mm 3 mps 751 mmHg 54%
17:00 +21°C° 0 mm 3 mps 751 mmHg 56%
18:00 +19°C° 0 mm 2 mps 751 mmHg 63%
19:00 +18°C° 0 mm 2 mps 751 mmHg 69%
20:00 +17°C° 0 mm 2 mps 751 mmHg 76%
21:00 +15°C° 0 mm 2 mps 752 mmHg 79%
22:00 +14°C° 0 mm 2 mps 752 mmHg 82%
23:00 +13°C° 0 mm 2 mps 752 mmHg 85%

17 June, Thursday

Time Temperature Precipitation Wind Pressure Humidity
00:00 +12°C° 0 mm 1 mps 752 mmHg 85%
01:00 +12°C° 0 mm 1 mps 752 mmHg 86%
02:00 +12°C° 0 mm 1 mps 753 mmHg 86%
03:00 +12°C° 0 mm 1 mps 753 mmHg 86%
04:00 +12°C° 0 mm 1 mps 753 mmHg 86%
05:00 +12°C° 0 mm 2 mps 753 mmHg 86%
06:00 +14°C° 0 mm 2 mps 753 mmHg 80%
07:00 +16°C° 0 mm 2 mps 753 mmHg 75%
08:00 +18°C° 0 mm 2 mps 753 mmHg 69%
09:00 +19°C° 0 mm 2 mps 753 mmHg 63%
10:00 +21°C° 0 mm 2 mps 754 mmHg 57%
11:00 +23°C° 0 mm 2 mps 754 mmHg 52%
12:00 +24°C° 0 mm 3 mps 754 mmHg 50%
13:00 +24°C° 0 mm 3 mps 753 mmHg 49%
14:00 +25°C° 0 mm 3 mps 753 mmHg 48%
15:00 +25°C° 0 mm 3 mps 753 mmHg 50%
16:00 +25°C° 0 mm 3 mps 753 mmHg 52%
17:00 +25°C° 0 mm 3 mps 753 mmHg 54%
18:00 +22°C° 0 mm 3 mps 753 mmHg 62%
19:00 +21°C° 0 mm 3 mps 753 mmHg 69%
20:00 +19°C° 0 mm 2 mps 753 mmHg 76%
21:00 +18°C° 0 mm 2 mps 753 mmHg 80%
22:00 +17°C° 0 mm 2 mps 753 mmHg 83%
23:00 +15°C° 0 mm 2 mps 753 mmHg 87%

18 June, Friday

Time Temperature Precipitation Wind Pressure Humidity
00:00 +15°C° 0 mm 2 mps 753 mmHg 88%
01:00 +14°C° 0 mm 2 mps 753 mmHg 90%
02:00 +14°C° 0 mm 2 mps 753 mmHg 92%
03:00 +14°C° 0 mm 2 mps 753 mmHg 91%
04:00 +13°C° 0 mm 2 mps 754 mmHg 90%
05:00 +13°C° 0 mm 2 mps 754 mmHg 89%
06:00 +14°C° 0 mm 3 mps 754 mmHg 82%
07:00 +17°C° 0 mm 3 mps 753 mmHg 75%
08:00 +19°C° 0 mm 3 mps 753 mmHg 68%
09:00 +21°C° 0 mm 3 mps 753 mmHg 64%
10:00 +22°C° 0 mm 3 mps 753 mmHg 59%
11:00 +25°C° 0 mm 4 mps 753 mmHg 54%
12:00 +25°C° 0 mm 4 mps 753 mmHg 53%
13:00 +26°C° 0 mm 4 mps 753 mmHg 51%
14:00 +27°C° 0 mm 4 mps 753 mmHg 50%
15:00 +27°C° 0 mm 4 mps 753 mmHg 52%
16:00 +27°C° 0 mm 3 mps 752 mmHg 54%
17:00 +27°C° 0 mm 3 mps 752 mmHg 57%
18:00 +25°C° 0 mm 3 mps 752 mmHg 63%
19:00 +22°C° 0 mm 3 mps 752 mmHg 70%
20:00 +21°C° 0 mm 3 mps 752 mmHg 77%
21:00 +20°C° 0 mm 3 mps 752 mmHg 81%
22:00 +18°C° 0 mm 3 mps 752 mmHg 86%
23:00 +17°C° 0 mm 3 mps 753 mmHg 90%
Show more

We Need Your Consent

Meteoprog and our Service Providers may store and access personal data such as cookies, device identifiers or other similar technologies on your device and process such data to personalise content and ads, as well as provide social media features and to analyse the traffic.

  • Store and/or access information on your device

    Cookies, device identifiers or other information can be stored or accessed on your device for the purposes indicated above.

  • Personalised ads and content, ad and content measurement, audience insights, and products development

    Ads and content can be personalised based on a profile. More data can be added to better personalise ads and content. Ad and content performance can be measured. Insights about the audience who saw the ads and content can be derived. Such data can be used to develop or improve user’s experience, systems and software.

By clicking ‘I Agree’ you will allow the use of indicated cookies, device identifiers, web beacons or other similar technologies. Your settings can be changed in the browser on your device.

For certain purposes, legitimate interests may be relied on, rather than consent. You can read more about this in our Privacy and Cookie Policy.